Weather in Mogochino

Russia / Tomsk District     57°42′40″N   83°34′52″E
temp.,
°C
wind,
m/s
gust,
m/s
humid.,
%
clouds,
%
prec.,
mm/h
press.,
hPa
HPBL,
m
12 april, mon
mon1201:00+1sw3995100 0.5 1033243
04:00+1sw41192100 0.0 1031369
07:00+1sw51384100 0.0 1029398
10:00+3wsw51478100 0.0 1027579
13:00+3wsw41283100 0.9 1025599
16:00+3w41293100 1.2 1024605
19:00+3w31096100 1.4 1025492
22:00+2nw41091100 0.0 1026643
13 april, tue
tue1301:00+1wnw3109628 0.1 1026392
04:00−2wnw399513 0.0 1027256
07:00−2wnw399782 0.0 1028345
10:00+1wnw4884100 0.0 1029663
13:00+5wnw586284 0.0 10281536
16:00+5wnw5970100 0.4 10271362
19:00+3wnw4978100 0.6 1028828
22:00+1w3118772 0.0 1028328
14 april, wed
wed1401:00+1w41386100 0.0 1028447
04:000w41192100 0.0 1028411
07:000w3109499 0.0 1028308
10:00+3w4782100 0.0 1027512
13:00+4wsw4792100 0.1 1025712
16:00+3wsw51293100 1.7 1022957
19:00+6w51180100 1.8 1020824
22:00+3wnw41096100 0.1 1021575
15 april, thu
thu1501:00+3wnw2799100 0.1 1021360
04:00+2wnw2499100 0.0 1022161
07:00+2wnw1399100 0.0 1022110
10:00+3w1498100 0.0 1022253
13:00+5wsw2491100 0.0 1021486
16:00+7sw3677100 0.1 1019902
19:00+7sw388074 0.1 1016499
22:00+6ssw4139096 0.0 1014319
16 april, fri
fri1601:00+7sw4129256 0.1 1012297
04:00+6wsw4128957 0.0 1011263
07:00+5wsw399337 0.0 1012180
10:00+7nw2589100 0.1 1013394
13:00+5nne3488100 0.5 1014350
16:00+4nne3484100 0.0 1015414
19:00+4ne348481 0.0 1015437
22:00+3ne2690100 0.0 1015416